Location: Hodgeman County Ambulance
(38.0844°N, 99.8949°W)
Time: 21:20:23
(UTC+00:00)

Envisat - Pass Details

Date: 27 September 2021
Orbit: 764 x 766 km, 98.2° (Epoch: 21 October)

Event Time Altitude Azimuth Distance (km) Brightness Sun altitude
Rises 11:05:28 0° 23° (NNE) 3,237 6.7 -17.7°
Reaches altitude 10° 11:08:00 10° 33° (NNE) 2,306 6.1 -17.3°
Maximum altitude 11:12:33 33° 97° (E) 1,277 4.8 -16.4°
Drops below altitude 10° 11:17:04 10° 160° (SSE) 2,291 5.6 -15.5°
Sets 11:19:35 0° 170° (S) 3,213 6.2 -15.0°
